Ponca City, OK

8:33 AM CST on February 09, 2016 (GMT -0600)
Ponca City Municipal

Weather History for KPNC - March, 2013

Change the Weather History Date:

Saturday, March 2, 2013

  Actual Average Record
Temperature  
Mean Temperature 34 °F -  
Max Temperature 46 °F 63 °F 80 °F (1955)
Min Temperature 21 °F 39 °F 6 °F (2014)
Degree Days  
Heating Degree Days 32    
Moisture  
Dew Point 21 °F    
Average Humidity 63    
Maximum Humidity 85    
Minimum Humidity 39    
Precipitation  
Precipitation 0.00 in - - ()
Sea Level Pressure  
Sea Level Pressure 30.32 in    
Wind  
Wind Speed 5 mph (NW)    
Max Wind Speed 8 mph    
Max Gust Speed -    
Visibility 10 miles    
Events      
Averages and records for this station are not official NWS values.
T = Trace of Precipitation, MM = Missing Value Source: NWS Daily Summary

Daily Weather History Graph

Daily Weather History Graph

Search for Another Location

Airport or City:

Trip Planner

Search our weather history database for the weather conditions in past years. The results will help you decide how hot, cold, wet, or windy it might be!

Date:

Astronomy

Mar. 02, 2013 Rise Set
Actual Time 6:57 AM CST 6:24 PM CST
Civil Twilight 6:31 AM CST 6:50 PM CST
Nautical Twilight 6:01 AM CST 7:20 PM CST
Astronomical Twilight 5:31 AM CST 7:50 PM CST
Moon 11:55 PM CST (3/2) 9:35 AM CST (3/2)
Length of Visible Light 12h 18m
Length of Day
11h 26m
Waning Gibbous, 74% of the Moon is Illuminated
Mar 2
Waning Gibbous
Mar 4
Last Quarter
Mar 11
New
Mar 19
First Quarter
Mar 27
Full

Hourly Weather History & Observations

Time (CST) Temp. Windchill Dew Point Humidity Pressure Visibility Wind Dir Wind Speed Gust Speed Precip Events Conditions
12:53 AM 25.0 °F 19.3 °F 18.0 °F 75% 30.38 in 10.0 mi NNW 4.6 mph - N/A   Clear
1:53 AM 25.0 °F 19.3 °F 19.0 °F 78% 30.39 in 10.0 mi NW 4.6 mph - N/A   Clear
2:53 AM 23.0 °F 15.8 °F 19.0 °F 85% 30.38 in 10.0 mi NW 5.8 mph - N/A   Clear
3:53 AM 24.1 °F 16.0 °F 19.0 °F 81% 30.38 in 10.0 mi NNW 6.9 mph - N/A   Clear
4:53 AM 23.0 °F 15.8 °F 18.0 °F 81% 30.38 in 10.0 mi NNW 5.8 mph - N/A   Clear
5:53 AM 21.9 °F 12.5 °F 17.1 °F 82% 30.40 in 10.0 mi NW 8.1 mph - N/A   Clear
6:53 AM 21.0 °F 13.4 °F 17.1 °F 85% 30.41 in 10.0 mi North 5.8 mph - N/A   Clear
7:53 AM 24.1 °F 16.0 °F 18.0 °F 77% 30.41 in 10.0 mi North 6.9 mph - N/A   Clear
8:53 AM 28.0 °F 20.0 °F 19.9 °F 72% 30.42 in 10.0 mi North 8.1 mph - N/A   Clear
9:53 AM 32.0 °F 28.7 °F 21.0 °F 64% 30.41 in 10.0 mi NNE 3.5 mph - N/A   Clear
10:53 AM 34.0 °F - 19.9 °F 56% 30.40 in 10.0 mi Calm Calm - N/A   Clear
11:53 AM 36.0 °F 32.1 °F 21.0 °F 55% 30.38 in 10.0 mi Variable 4.6 mph - N/A   Clear
12:53 PM 39.9 °F 35.8 °F 19.9 °F 45% 30.35 in 10.0 mi WNW 5.8 mph - N/A   Clear
1:53 PM 42.1 °F - 21.0 °F 43% 30.31 in 10.0 mi Calm Calm - N/A   Clear
2:53 PM 45.0 °F 41.8 °F 21.0 °F 39% 30.30 in 10.0 mi NW 5.8 mph - N/A   Clear
3:53 PM 46.0 °F - 23.0 °F 40% 30.28 in 10.0 mi Calm Calm - N/A   Clear
4:53 PM 46.0 °F - 24.1 °F 42% 30.26 in 10.0 mi Calm Calm - N/A   Clear
5:53 PM 45.0 °F 43.5 °F 25.0 °F 46% 30.25 in 10.0 mi SW 3.5 mph - N/A   Clear
6:53 PM 41.0 °F 39.0 °F 26.1 °F 55% 30.25 in 10.0 mi SSE 3.5 mph - N/A   Clear
7:53 PM 39.9 °F 35.8 °F 26.1 °F 58% 30.24 in 10.0 mi SSE 5.8 mph - N/A   Clear
8:53 PM 37.9 °F 35.5 °F 25.0 °F 60% 30.23 in 10.0 mi South 3.5 mph - N/A   Clear
9:53 PM 36.0 °F 33.3 °F 26.1 °F 67% 30.22 in 10.0 mi SSE 3.5 mph - N/A   Clear
10:53 PM 35.1 °F 29.3 °F 26.1 °F 70% 30.19 in 10.0 mi SSE 6.9 mph - N/A   Clear
11:53 PM 35.1 °F 29.3 °F 25.0 °F 67% 30.17 in 10.0 mi SSE 6.9 mph - N/A   Clear